Weather in Suez

Egypt     29˚57′24″N   32˚30′03″E
temp.,
°C
wind,
m/s
gust,
m/s
humid.,
%
clouds,
%
prec.,
mm/h
press.,
hPa
HPBL,
m
30 november, mon
mon3023:00+14˚ne11680 0.0 101932
02:00+13˚nnw11710 0.0 101732
05:00+12˚n11740 0.0 101732
08:00+16˚nnw11560 0.0 101733
11:00+20˚n11420 0.0 1018792
14:00+22˚ene12320 0.0 10151280
17:00+18˚ne23440 0.0 101546
20:00+16˚ese11490 0.0 101529
1 december, tue
tue123:00+15˚ssw11510 0.0 101529
02:00+14˚s11520 0.0 101429
05:00+13˚sse22540 0.0 101332
08:00+17˚sse22450 0.0 101446
11:00+21˚se22370 0.0 1013897
14:00+22˚se12320 0.0 10111766
17:00+19˚wnw34310 0.0 101285
20:00+17˚w23330 0.0 101459
2 december, wed
wed223:00+15˚wnw12450 0.0 101531
02:00+13˚nw12610 0.0 101529
05:00+12˚wnw11680 0.0 101632
08:00+16˚nnw01560 0.0 101738
11:00+19˚nne12450 0.0 1017772
14:00+21˚ne22370 0.0 10151187
17:00+17˚nne22460 0.0 101644
20:00+16˚nne22520 0.0 101735
3 december, thu
thu323:00+14˚n12600 0.0 101834
02:00+13˚ene01700 0.0 101833
05:00+12˚nnw11770 0.0 101731
08:00+15˚nnw11620 0.0 101932
11:00+20˚nne11410 0.0 1018494
14:00+22˚n11310 0.0 10161042
17:00+19˚n33410 0.0 101645
20:00+17˚nnw34470 0.0 101737
4 december, fri
fri423:00+16˚nw33510 0.0 101731
02:00+14˚nw22560 0.0 101632
05:00+14˚nnw23550 0.0 101632
08:00+17˚nw33470 0.0 101759
11:00+21˚nnw34350 0.0 1017755
14:00+22˚n43310 0.0 10151287
17:00+18˚n34400 0.0 101664
20:00+16˚nne12493 0.0 101733